QPF
0.00 0.00 0.00 0.00 0.00 0.00 0.00 0.00 0.00 0.00 0.00 0.00 0.00 0.00 0.00 0.00 0.00 0.00 0.00 0.00 0.00 0.00 0.00 0.00 0.00 0.01 0.02 0.04 0.05 0.07 0.11 0.10 0.07 0.04 0.02 0.01 0.02 0.04 0.06 0.10 0.12 0.14 0.18 0.19
0.00 0.00 0.00 0.00 0.00 0.00 0.00 0.00 0.00 0.00 0.00 0.00 0.00 0.00 0.00 0.00 0.00 0.00 0.00 0.00 0.00 0.00 0.00 0.00 0.00 0.01 0.02 0.03 0.05 0.09 0.15 0.16 0.12 0.08 0.03 0.01 0.01 0.01 0.04 0.06 0.07 0.09 0.09 0.06
0.00 0.00 0.00 0.00 0.00 0.00 0.00 0.00 0.00 0.00 0.00 0.00 0.00 0.00 0.00 0.00 0.00 0.00 0.00 0.00 0.00 0.00 0.00 0.00 0.00 0.01 0.02 0.02 0.02 0.08 0.18 0.21 0.16 0.13 0.05 0.01 0.01 0.02 0.03 0.03 0.04 0.05 0.03 0.01
0.00 0.00 0.00 0.00 0.00 0.00 0.00 0.00 0.00 0.00 0.00 0.00 0.00 0.00 0.00 0.00 0.00 0.00 0.00 0.00 0.00 0.00 0.00 0.00 0.00 0.00 0.01 0.01 0.01 0.05 0.15 0.21 0.21 0.15 0.06 0.02 0.02 0.03 0.02 0.03 0.06 0.08 0.04 0.01
0.00 0.00 0.00 0.00 0.00 0.00 0.00 0.00 0.00 0.00 0.00 0.00 0.00 0.00 0.00 0.00 0.00 0.00 0.00 0.00 0.00 0.00 0.00 0.00 0.00 0.00 0.00 0.00 0.00 0.02 0.10 0.18 0.22 0.17 0.08 0.03 0.04 0.04 0.03 0.04 0.06 0.06 0.03 0.01
0.00 0.00 0.01 0.00 0.00 0.00 0.00 0.01 0.01 0.00 0.00 0.00 0.01 0.03 0.01 0.00 0.00 0.00 0.00 0.00 0.00 0.00 0.00 0.00 0.00 0.00 0.00 0.00 0.01 0.02 0.05 0.13 0.20 0.21 0.15 0.09 0.08 0.05 0.03 0.04 0.06 0.04 0.03 0.01
0.00 0.01 0.00 0.00 0.00 0.00 0.02 0.04 0.01 0.01 0.01 0.02 0.05 0.07 0.03 0.01 0.01 0.01 0.01 0.00 0.00 0.00 0.00 0.00 0.00 0.00 0.00 0.00 0.00 0.01 0.03 0.08 0.15 0.23 0.21 0.18 0.15 0.09 0.05 0.05 0.07 0.08 0.05 0.04
0.00 0.01 0.01 0.00 0.00 0.02 0.04 0.03 0.04 0.04 0.04 0.04 0.03 0.02 0.01 0.01 0.01 0.00 0.00 0.01 0.01 0.01 0.01 0.01 0.00 0.00 0.00 0.00 0.00 0.00 0.03 0.09 0.16 0.20 0.13 0.12 0.15 0.13 0.11 0.10 0.10 0.09 0.07 0.05
0.01 0.01 0.01 0.00 0.01 0.02 0.03 0.05 0.05 0.05 0.03 0.02 0.02 0.02 0.02 0.01 0.01 0.01 0.01 0.02 0.03 0.04 0.05 0.05 0.05 0.04 0.01 0.00 0.00 0.01 0.03 0.08 0.14 0.16 0.15 0.19 0.16 0.13 0.12 0.11 0.10 0.07 0.04 0.03
0.04 0.03 0.01 0.02 0.02 0.02 0.02 0.02 0.02 0.02 0.01 0.02 0.03 0.04 0.04 0.03 0.03 0.02 0.02 0.02 0.03 0.07 0.12 0.18 0.20 0.14 0.05 0.02 0.01 0.01 0.03 0.07 0.11 0.14 0.15 0.16 0.16 0.13 0.10 0.08 0.08 0.07 0.04 0.02
0.03 0.02 0.01 0.01 0.01 0.01 0.01 0.01 0.01 0.01 0.01 0.02 0.04 0.05 0.06 0.05 0.05 0.04 0.03 0.03 0.05 0.09 0.16 0.24 0.33 0.28 0.12 0.04 0.02 0.01 0.03 0.06 0.08 0.10 0.12 0.12 0.12 0.12 0.12 0.11 0.07 0.07 0.06 0.03
0.01 0.01 0.01 0.01 0.01 0.01 0.01 0.01 0.02 0.02 0.02 0.03 0.04 0.05 0.05 0.05 0.05 0.04 0.04 0.05 0.08 0.14 0.18 0.21 0.29 0.36 0.24 0.11 0.04 0.02 0.02 0.04 0.04 0.05 0.08 0.08 0.09 0.04 0.02 0.04 0.01 0.01 0.02 0.02
0.00 0.00 0.00 0.01 0.01 0.01 0.02 0.02 0.01 0.02 0.02 0.02 0.02 0.02 0.02 0.03 0.03 0.03 0.03 0.04 0.08 0.14 0.18 0.20 0.24 0.33 0.33 0.23 0.09 0.03 0.01 0.02 0.02 0.02 0.03 0.04 0.04 0.03 0.01 0.00 0.00 0.00 0.00 0.00
0.00 0.00 0.00 0.00 0.01 0.01 0.00 0.00 0.00 0.00 0.00 0.00 0.00 0.01 0.01 0.01 0.02 0.03 0.04 0.04 0.05 0.09 0.12 0.16 0.22 0.29 0.34 0.34 0.21 0.07 0.02 0.01 0.01 0.01 0.01 0.01 0.01 0.02 0.03 0.01 0.00 0.00 0.00 0.00
0.00 0.00 0.00 0.00 0.00 0.00 0.00 0.00 0.00 0.00 0.00 0.00 0.00 0.00 0.00 0.01 0.02 0.02 0.02 0.03 0.05 0.07 0.09 0.13 0.21 0.28 0.38 0.44 0.34 0.13 0.03 0.01 0.00 0.00 0.00 0.00 0.00 0.01 0.02 0.03 0.02 0.01 0.00 0.00
0.00 0.00 0.00 0.00 0.00 0.00 0.00 0.00 0.00 0.00 0.00 0.00 0.00 0.00 0.00 0.01 0.01 0.02 0.02 0.03 0.06 0.07 0.10 0.13 0.17 0.24 0.37 0.49 0.44 0.22 0.06 0.01 0.00 0.00 0.00 0.00 0.00 0.00 0.01 0.03 0.03 0.02 0.00 0.00
0.00 0.00 0.00 0.00 0.00 0.00 0.00 0.00 0.00 0.00 0.00 0.00 0.00 0.00 0.00 0.00 0.01 0.02 0.03 0.03 0.05 0.06 0.08 0.12 0.16 0.21 0.33 0.45 0.45 0.27 0.08 0.01 0.00 0.00 0.00 0.00 0.00 0.00 0.00 0.01 0.02 0.02 0.01 0.00
0.00 0.00 0.00 0.00 0.00 0.00 0.00 0.00 0.00 0.00 0.00 0.00 0.00 0.00 0.00 0.01 0.02 0.03 0.03 0.04 0.04 0.05 0.06 0.10 0.15 0.22 0.31 0.39 0.42 0.31 0.12 0.02 0.00 0.00 0.00 0.00 0.00 0.00 0.00 0.00 0.00 0.01 0.00 0.00
0.00 0.00 0.00 0.00 0.00 0.00 0.00 0.00 0.00 0.00 0.00 0.01 0.01 0.01 0.02 0.02 0.03 0.03 0.05 0.06 0.06 0.05 0.06 0.10 0.14 0.20 0.28 0.36 0.38 0.32 0.15 0.03 0.01 0.00 0.00 0.00 0.00 0.00 0.00 0.00 0.00 0.00 0.00 0.00
0.00 0.00 0.00 0.00 0.00 0.00 0.00 0.00 0.01 0.01 0.02 0.02 0.03 0.04 0.05 0.05 0.05 0.06 0.07 0.07 0.07 0.07 0.07 0.10 0.14 0.18 0.24 0.34 0.36 0.27 0.15 0.06 0.01 0.00 0.00 0.00 0.00 0.00 0.00 0.00 0.00 0.00 0.00 0.00
0.00 0.00 0.00 0.00 0.00 0.00 0.01 0.01 0.03 0.04 0.04 0.05 0.07 0.08 0.08 0.08 0.08 0.08 0.09 0.07 0.06 0.07 0.06 0.07 0.11 0.16 0.23 0.32 0.34 0.25 0.14 0.06 0.02 0.01 0.00 0.00 0.00 0.00 0.00 0.00 0.00 0.00 0.00 0.00
0.00 0.00 0.00 0.00 0.01 0.02 0.02 0.03 0.05 0.07 0.08 0.08 0.08 0.08 0.09 0.09 0.09 0.08 0.08 0.08 0.07 0.04 0.04 0.07 0.11 0.15 0.22 0.31 0.30 0.21 0.12 0.06 0.03 0.01 0.00 0.00 0.00 0.00 0.00 0.00 0.00 0.00 0.00 0.00
0.00 0.01 0.01 0.02 0.03 0.03 0.03 0.05 0.07 0.11 0.14 0.13 0.11 0.10 0.09 0.10 0.10 0.09 0.06 0.05 0.06 0.04 0.04 0.08 0.12 0.15 0.17 0.23 0.25 0.16 0.09 0.05 0.03 0.01 0.00 0.00 0.00 0.00 0.00 0.00 0.00 0.00 0.00 0.00
0.00 0.01 0.02 0.02 0.03 0.05 0.08 0.10 0.12 0.15 0.15 0.13 0.10 0.08 0.08 0.08 0.07 0.06 0.05 0.04 0.04 0.03 0.05 0.08 0.10 0.12 0.11 0.13 0.17 0.13 0.07 0.04 0.02 0.01 0.00 0.00 0.00 0.00 0.00 0.00 0.00 0.00 0.00 0.00
0.01 0.01 0.02 0.03 0.06 0.13 0.19 0.23 0.24 0.23 0.19 0.16 0.10 0.06 0.05 0.06 0.06 0.05 0.04 0.05 0.05 0.04 0.07 0.09 0.10 0.10 0.08 0.07 0.09 0.08 0.06 0.04 0.02 0.01 0.00 0.00 0.00 0.00 0.00 0.00 0.00 0.00 0.00 0.00
0.01 0.01 0.02 0.04 0.09 0.18 0.27 0.33 0.38 0.34 0.30 0.26 0.16 0.07 0.04 0.04 0.04 0.04 0.04 0.04 0.04 0.05 0.09 0.13 0.12 0.10 0.08 0.06 0.05 0.05 0.05 0.04 0.02 0.01 0.00 0.00 0.00 0.00 0.00 0.00 0.00 0.00 0.00 0.00
0.01 0.01 0.02 0.04 0.09 0.16 0.25 0.31 0.39 0.40 0.36 0.36 0.25 0.11 0.05 0.03 0.03 0.03 0.03 0.04 0.05 0.08 0.12 0.15 0.14 0.10 0.07 0.05 0.03 0.03 0.03 0.02 0.01 0.00 0.00 0.00 0.00 0.00 0.00 0.00 0.00 0.00 0.00 0.00
MSLP
1011.95 1011.62 1011.23 1010.82 1010.44 1010.10 1009.81 1009.57 1009.34 1009.11 1008.85 1008.54 1008.17 1007.76 1007.33 1006.90 1006.51 1006.18 1005.93 1005.78 1005.73 1005.76 1005.87 1006.04 1006.25 1006.49 1006.73 1006.97 1007.21 1007.43 1007.64 1007.84 1008.01 1008.17 1008.30 1008.40 1008.46 1008.49 1008.46 1008.40 1008.29 1008.15 1008.00 1007.85
1011.87 1011.50 1011.04 1010.55 1010.07 1009.64 1009.29 1009.01 1008.80 1008.62 1008.44 1008.25 1008.01 1007.72 1007.38 1007.01 1006.63 1006.26 1005.94 1005.69 1005.52 1005.44 1005.44 1005.52 1005.67 1005.86 1006.09 1006.34 1006.59 1006.84 1007.09 1007.33 1007.56 1007.79 1007.99 1008.18 1008.34 1008.47 1008.55 1008.59 1008.58 1008.54 1008.47 1008.40
1011.72 1011.39 1010.96 1010.48 1010.01 1009.59 1009.24 1008.97 1008.79 1008.66 1008.55 1008.43 1008.26 1008.03 1007.72 1007.35 1006.92 1006.48 1006.04 1005.65 1005.34 1005.11 1004.99 1004.97 1005.04 1005.18 1005.39 1005.64 1005.92 1006.21 1006.51 1006.80 1007.10 1007.38 1007.66 1007.92 1008.17 1008.38 1008.56 1008.70 1008.79 1008.83 1008.85 1008.85
1011.62 1011.41 1011.10 1010.75 1010.38 1010.05 1009.77 1009.57 1009.43 1009.34 1009.27 1009.17 1009.01 1008.76 1008.41 1007.97 1007.44 1006.86 1006.27 1005.71 1005.22 1004.83 1004.56 1004.42 1004.40 1004.49 1004.68 1004.93 1005.24 1005.57 1005.92 1006.28 1006.63 1006.99 1007.33 1007.66 1007.97 1008.26 1008.51 1008.72 1008.89 1009.01 1009.11 1009.19
1011.70 1011.67 1011.57 1011.41 1011.22 1011.03 1010.87 1010.75 1010.67 1010.60 1010.52 1010.39 1010.18 1009.85 1009.41 1008.83 1008.16 1007.41 1006.63 1005.88 1005.20 1004.63 1004.20 1003.92 1003.80 1003.83 1003.98 1004.24 1004.56 1004.94 1005.35 1005.77 1006.19 1006.60 1007.00 1007.39 1007.76 1008.10 1008.40 1008.67 1008.90 1009.09 1009.24 1009.39
1012.05 1012.25 1012.38 1012.44 1012.46 1012.44 1012.40 1012.36 1012.31 1012.24 1012.11 1011.91 1011.60 1011.15 1010.56 1009.84 1008.99 1008.06 1007.09 1006.14 1005.27 1004.52 1003.92 1003.51 1003.28 1003.23 1003.33 1003.58 1003.92 1004.33 1004.78 1005.26 1005.73 1006.21 1006.66 1007.10 1007.51 1007.89 1008.24 1008.55 1008.83 1009.07 1009.28 1009.47
1012.73 1013.14 1013.49 1013.76 1013.95 1014.06 1014.12 1014.12 1014.06 1013.94 1013.74 1013.43 1013.00 1012.42 1011.68 1010.80 1009.80 1008.70 1007.57 1006.46 1005.42 1004.50 1003.76 1003.21 1002.86 1002.72 1002.77 1002.97 1003.31 1003.73 1004.21 1004.72 1005.25 1005.77 1006.27 1006.75 1007.20 1007.62 1008.01 1008.37 1008.68 1008.97 1009.24 1009.48
1013.70 1014.27 1014.77 1015.17 1015.46 1015.64 1015.72 1015.70 1015.59 1015.38 1015.07 1014.64 1014.08 1013.38 1012.53 1011.54 1010.42 1009.22 1007.98 1006.76 1005.60 1004.56 1003.69 1003.02 1002.57 1002.33 1002.30 1002.44 1002.74 1003.15 1003.63 1004.16 1004.71 1005.27 1005.81 1006.33 1006.82 1007.29 1007.72 1008.12 1008.49 1008.83 1009.15 1009.46
1014.84 1015.48 1016.04 1016.46 1016.75 1016.89 1016.90 1016.79 1016.57 1016.24 1015.81 1015.27 1014.61 1013.83 1012.91 1011.88 1010.73 1009.51 1008.24 1006.97 1005.77 1004.67 1003.72 1002.96 1002.40 1002.06 1001.93 1002.00 1002.23 1002.58 1003.04 1003.56 1004.11 1004.69 1005.26 1005.82 1006.36 1006.88 1007.37 1007.83 1008.26 1008.67 1009.05 1009.42
1015.99 1016.60 1017.09 1017.43 1017.59 1017.60 1017.45 1017.18 1016.80 1016.33 1015.78 1015.15 1014.43 1013.63 1012.73 1011.73 1010.64 1009.48 1008.27 1007.05 1005.87 1004.77 1003.79 1002.98 1002.34 1001.91 1001.68 1001.64 1001.77 1002.05 1002.44 1002.92 1003.46 1004.04 1004.63 1005.23 1005.82 1006.40 1006.96 1007.49 1008.00 1008.49 1008.95 1009.38
1016.98 1017.46 1017.77 1017.90 1017.84 1017.62 1017.26 1016.79 1016.23 1015.61 1014.96 1014.28 1013.56 1012.79 1011.98 1011.09 1010.14 1009.13 1008.06 1006.97 1005.88 1004.84 1003.88 1003.04 1002.35 1001.83 1001.50 1001.35 1001.38 1001.55 1001.86 1002.28 1002.78 1003.34 1003.95 1004.58 1005.22 1005.86 1006.50 1007.12 1007.72 1008.29 1008.83 1009.34
1017.66 1017.91 1017.95 1017.81 1017.48 1016.98 1016.37 1015.68 1014.95 1014.22 1013.50 1012.80 1012.13 1011.46 1010.78 1010.07 1009.31 1008.50 1007.62 1006.70 1005.75 1004.81 1003.91 1003.09 1002.37 1001.79 1001.36 1001.11 1001.02 1001.09 1001.30 1001.64 1002.09 1002.63 1003.24 1003.89 1004.58 1005.29 1006.00 1006.71 1007.39 1008.05 1008.68 1009.26
1017.95 1017.92 1017.67 1017.22 1016.60 1015.84 1015.00 1014.12 1013.26 1012.44 1011.69 1011.02 1010.43 1009.88 1009.37 1008.85 1008.30 1007.69 1007.02 1006.28 1005.49 1004.67 1003.84 1003.05 1002.33 1001.71 1001.21 1000.86 1000.67 1000.64 1000.76 1001.02 1001.42 1001.92 1002.52 1003.19 1003.92 1004.68 1005.46 1006.25 1007.02 1007.76 1008.45 1009.09
1017.84 1017.53 1016.99 1016.26 1015.39 1014.41 1013.40 1012.40 1011.45 1010.61 1009.87 1009.26 1008.76 1008.34 1007.97 1007.62 1007.24 1006.81 1006.32 1005.74 1005.08 1004.37 1003.62 1002.88 1002.17 1001.52 1000.98 1000.57 1000.30 1000.18 1000.23 1000.42 1000.76 1001.23 1001.82 1002.49 1003.25 1004.05 1004.89 1005.73 1006.57 1007.37 1008.12 1008.80
1017.39 1016.82 1016.05 1015.12 1014.07 1012.97 1011.86 1010.81 1009.86 1009.03 1008.34 1007.79 1007.37 1007.05 1006.78 1006.54 1006.27 1005.96 1005.57 1005.09 1004.53 1003.90 1003.22 1002.52 1001.83 1001.19 1000.63 1000.19 999.87 999.70 999.69 999.84 1000.13 1000.57 1001.13 1001.81 1002.57 1003.40 1004.27 1005.15 1006.03 1006.87 1007.66 1008.37
1016.69 1015.94 1015.01 1013.96 1012.84 1011.70 1010.60 1009.58 1008.68 1007.91 1007.29 1006.80 1006.43 1006.15 1005.91 1005.69 1005.46 1005.17 1004.81 1004.37 1003.85 1003.26 1002.62 1001.96 1001.30 1000.69 1000.15 999.70 999.38 999.19 999.15 999.26 999.53 999.94 1000.48 1001.14 1001.90 1002.73 1003.61 1004.51 1005.40 1006.26 1007.07 1007.80
1015.85 1014.99 1014.00 1012.93 1011.83 1010.75 1009.74 1008.82 1008.01 1007.33 1006.77 1006.32 1005.95 1005.65 1005.38 1005.10 1004.80 1004.45 1004.04 1003.57 1003.03 1002.45 1001.84 1001.22 1000.61 1000.04 999.54 999.13 998.83 998.65 998.61 998.71 998.95 999.34 999.86 1000.49 1001.23 1002.04 1002.91 1003.80 1004.69 1005.56 1006.37 1007.10
1014.96 1014.06 1013.08 1012.08 1011.09 1010.14 1009.27 1008.49 1007.80 1007.21 1006.70 1006.25 1005.84 1005.46 1005.07 1004.67 1004.24 1003.76 1003.25 1002.70 1002.12 1001.52 1000.93 1000.35 999.80 999.30 998.87 998.52 998.27 998.13 998.10 998.20 998.43 998.79 999.28 999.88 1000.57 1001.35 1002.19 1003.06 1003.93 1004.78 1005.57 1006.30
1014.08 1013.20 1012.30 1011.42 1010.58 1009.80 1009.10 1008.47 1007.90 1007.37 1006.88 1006.40 1005.91 1005.40 1004.86 1004.29 1003.68 1003.05 1002.41 1001.77 1001.14 1000.53 999.96 999.43 998.96 998.55 998.20 997.94 997.75 997.66 997.66 997.77 997.98 998.31 998.75 999.30 999.95 1000.68 1001.47 1002.30 1003.13 1003.95 1004.73 1005.44
1013.23 1012.42 1011.64 1010.90 1010.22 1009.61 1009.06 1008.55 1008.07 1007.59 1007.08 1006.53 1005.93 1005.28 1004.57 1003.82 1003.04 1002.27 1001.51 1000.79 1000.13 999.53 999.00 998.55 998.18 997.87 997.63 997.45 997.34 997.29 997.32 997.42 997.62 997.90 998.29 998.78 999.36 1000.03 1000.76 1001.54 1002.33 1003.12 1003.87 1004.56
1012.45 1011.72 1011.05 1010.44 1009.91 1009.43 1009.00 1008.57 1008.14 1007.65 1007.10 1006.46 1005.74 1004.94 1004.07 1003.17 1002.26 1001.38 1000.55 999.80 999.14 998.59 998.14 997.79 997.52 997.33 997.19 997.10 997.05 997.05 997.09 997.18 997.33 997.57 997.89 998.31 998.82 999.41 1000.08 1000.80 1001.55 1002.29 1003.01 1003.69
1011.74 1011.09 1010.51 1010.01 1009.57 1009.18 1008.81 1008.41 1007.97 1007.44 1006.81 1006.08 1005.24 1004.31 1003.32 1002.32 1001.33 1000.39 999.55 998.81 998.21 997.75 997.40 997.17 997.02 996.94 996.90 996.89 996.89 996.91 996.94 997.00 997.11 997.28 997.53 997.87 998.30 998.82 999.43 1000.09 1000.78 1001.49 1002.18 1002.82
1011.13 1010.54 1010.03 1009.59 1009.20 1008.83 1008.46 1008.04 1007.54 1006.93 1006.21 1005.37 1004.43 1003.41 1002.35 1001.29 1000.27 999.35 998.54 997.88 997.37 997.02 996.79 996.68 996.65 996.67 996.72 996.76 996.80 996.82 996.83 996.86 996.91 997.01 997.18 997.44 997.80 998.25 998.79 999.39 1000.04 1000.70 1001.36 1001.97
1010.64 1010.10 1009.63 1009.20 1008.81 1008.42 1007.99 1007.49 1006.90 1006.20 1005.37 1004.44 1003.41 1002.32 1001.22 1000.15 999.17 998.29 997.57 997.01 996.62 996.38 996.28 996.29 996.36 996.46 996.56 996.65 996.69 996.71 996.69 996.67 996.66 996.70 996.80 997.00 997.29 997.67 998.15 998.71 999.31 999.94 1000.56 1001.15
1010.32 1009.81 1009.34 1008.90 1008.47 1008.00 1007.48 1006.88 1006.17 1005.35 1004.42 1003.39 1002.30 1001.18 1000.07 999.03 998.09 997.29 996.66 996.21 995.93 995.81 995.82 995.91 996.05 996.21 996.35 996.45 996.49 996.49 996.44 996.38 996.33 996.31 996.37 996.51 996.75 997.09 997.52 998.04 998.60 999.20 999.79 1000.36
1010.19 1009.69 1009.21 1008.73 1008.22 1007.66 1007.03 1006.31 1005.47 1004.54 1003.50 1002.40 1001.25 1000.11 999.01 998.00 997.12 996.40 995.86 995.50 995.31 995.26 995.33 995.48 995.67 995.85 996.00 996.09 996.13 996.11 996.04 995.95 995.88 995.84 995.86 995.98 996.19 996.50 996.90 997.39 997.93 998.50 999.07 999.62
1010.24 1009.74 1009.23 1008.70 1008.11 1007.45 1006.70 1005.86 1004.91 1003.87 1002.74 1001.57 1000.39 999.23 998.14 997.17 996.33 995.66 995.17 994.87 994.72 994.71 994.81 994.97 995.16 995.34 995.48 995.56 995.59 995.56 995.49 995.40 995.33 995.29 995.32 995.43 995.63 995.94 996.33 996.80 997.32 997.87 998.43 998.97
Thickness
5739 5745 5749 5748 5750 5752 5745 5740 5728 5729 5731 5736 5736 5734 5732 5730 5725 5721 5718 5717 5714 5708 5703 5696 5689 5683 5678 5673 5670 5666 5662 5658 5654 5649 5644 5640 5636 5631 5627 5624 5624 5626 5629 5632
5733 5743 5749 5749 5755 5753 5748 5744 5737 5730 5725 5735 5733 5728 5721 5717 5713 5709 5709 5710 5709 5705 5699 5692 5686 5679 5674 5670 5667 5663 5659 5656 5652 5647 5642 5638 5634 5631 5626 5623 5622 5623 5623 5625
5722 5738 5738 5731 5747 5745 5741 5738 5727 5712 5713 5720 5714 5707 5704 5703 5702 5701 5703 5703 5700 5698 5694 5689 5683 5678 5671 5668 5665 5661 5657 5654 5650 5644 5639 5635 5633 5630 5626 5623 5621 5621 5620 5620
5715 5717 5703 5735 5756 5748 5736 5727 5716 5709 5705 5701 5696 5696 5697 5697 5691 5688 5690 5691 5692 5691 5689 5687 5682 5676 5671 5667 5663 5659 5655 5651 5647 5642 5637 5633 5630 5627 5624 5622 5619 5618 5616 5616
5707 5704 5715 5733 5730 5724 5711 5699 5687 5684 5682 5681 5682 5682 5685 5685 5679 5677 5679 5683 5685 5688 5687 5685 5680 5674 5668 5664 5660 5656 5653 5650 5646 5641 5635 5630 5626 5624 5622 5619 5616 5615 5614 5612
5700 5686 5679 5693 5710 5716 5702 5682 5665 5663 5658 5658 5659 5648 5653 5662 5665 5666 5668 5674 5679 5684 5685 5681 5677 5672 5664 5660 5657 5654 5653 5650 5645 5640 5634 5628 5624 5622 5620 5617 5613 5612 5610 5608
5691 5682 5689 5669 5689 5691 5662 5637 5640 5640 5635 5632 5628 5626 5634 5642 5646 5648 5652 5658 5664 5669 5675 5677 5675 5668 5661 5657 5655 5655 5654 5650 5644 5639 5633 5628 5623 5619 5616 5613 5610 5608 5606 5604
5693 5678 5667 5655 5658 5634 5616 5615 5612 5610 5607 5604 5605 5609 5613 5617 5623 5629 5634 5640 5644 5648 5654 5666 5669 5664 5658 5654 5654 5654 5652 5649 5643 5637 5633 5629 5621 5617 5614 5610 5606 5604 5602 5600
5677 5649 5629 5628 5618 5608 5602 5595 5592 5589 5587 5584 5583 5584 5586 5590 5597 5606 5612 5618 5624 5629 5634 5642 5654 5655 5651 5651 5651 5649 5648 5645 5641 5636 5632 5629 5621 5615 5611 5608 5605 5602 5600 5598
5657 5630 5623 5612 5604 5595 5588 5582 5579 5575 5572 5569 5566 5566 5567 5569 5574 5582 5591 5598 5605 5611 5616 5621 5629 5639 5644 5645 5645 5643 5643 5641 5638 5633 5629 5625 5620 5617 5613 5610 5606 5603 5601 5600
5631 5612 5608 5601 5590 5582 5577 5571 5566 5564 5561 5557 5555 5555 5556 5557 5561 5564 5570 5579 5586 5593 5599 5605 5609 5619 5631 5637 5637 5636 5636 5637 5635 5631 5627 5623 5619 5617 5615 5613 5610 5605 5603 5603
5601 5590 5582 5578 5573 5566 5560 5556 5554 5551 5550 5547 5540 5536 5537 5540 5543 5546 5551 5559 5567 5576 5585 5592 5597 5602 5613 5626 5630 5630 5629 5631 5631 5629 5625 5621 5616 5611 5604 5608 5607 5607 5606 5604
5586 5578 5570 5565 5560 5554 5548 5544 5541 5537 5531 5524 5519 5515 5513 5515 5521 5526 5532 5538 5546 5557 5567 5577 5586 5590 5598 5609 5620 5624 5625 5626 5628 5628 5625 5621 5616 5613 5605 5599 5599 5602 5602 5600
5575 5566 5559 5555 5550 5546 5539 5535 5530 5525 5519 5513 5509 5506 5503 5502 5504 5507 5512 5519 5528 5539 5551 5563 5573 5581 5585 5592 5606 5615 5619 5621 5623 5625 5625 5622 5619 5614 5611 5605 5600 5596 5592 5592
5564 5557 5551 5548 5544 5539 5534 5529 5525 5521 5517 5512 5507 5503 5498 5495 5494 5495 5497 5503 5512 5524 5537 5549 5559 5567 5574 5580 5592 5604 5611 5615 5619 5623 5623 5621 5619 5616 5612 5609 5604 5599 5589 5581
5558 5552 5546 5539 5534 5529 5526 5522 5517 5514 5511 5508 5504 5501 5497 5494 5491 5491 5491 5493 5498 5510 5523 5535 5546 5556 5562 5570 5581 5596 5605 5610 5612 5616 5618 5617 5616 5614 5612 5608 5604 5600 5593 5585
5547 5540 5533 5526 5521 5519 5515 5512 5509 5507 5505 5501 5499 5497 5495 5492 5490 5488 5487 5488 5491 5499 5511 5524 5537 5547 5555 5564 5574 5588 5599 5604 5606 5609 5611 5612 5611 5611 5610 5607 5604 5599 5595 5589
5536 5527 5519 5513 5510 5508 5507 5505 5501 5497 5494 5493 5492 5490 5488 5487 5486 5486 5485 5485 5488 5495 5506 5518 5530 5540 5549 5559 5569 5581 5593 5601 5603 5604 5604 5605 5606 5606 5607 5605 5602 5598 5594 5587
5525 5518 5512 5508 5504 5501 5498 5495 5492 5489 5486 5483 5480 5479 5478 5479 5480 5481 5481 5482 5484 5491 5503 5514 5525 5535 5546 5555 5565 5577 5588 5596 5599 5599 5598 5597 5598 5601 5602 5603 5600 5597 5593 5587
5516 5511 5507 5504 5500 5496 5493 5490 5485 5480 5475 5471 5468 5466 5466 5467 5467 5470 5473 5476 5482 5489 5500 5511 5524 5534 5544 5553 5564 5576 5585 5591 5596 5596 5595 5595 5596 5597 5599 5600 5598 5596 5593 5589
5510 5507 5504 5501 5498 5495 5489 5484 5478 5472 5467 5461 5457 5456 5456 5458 5458 5461 5466 5472 5480 5487 5498 5510 5523 5533 5542 5550 5560 5573 5583 5588 5593 5594 5594 5596 5596 5597 5598 5598 5597 5595 5593 5591
5505 5503 5501 5500 5498 5493 5487 5480 5473 5466 5461 5456 5453 5450 5450 5451 5452 5456 5462 5469 5478 5486 5497 5512 5525 5533 5540 5546 5559 5571 5580 5586 5589 5593 5596 5597 5598 5598 5598 5599 5598 5597 5596 5594
5503 5502 5501 5499 5497 5492 5485 5477 5469 5461 5457 5454 5451 5449 5448 5448 5449 5453 5462 5472 5480 5489 5500 5514 5525 5531 5537 5547 5559 5570 5578 5583 5586 5592 5597 5599 5600 5600 5600 5600 5600 5599 5598 5596
5501 5501 5500 5500 5496 5489 5481 5474 5466 5461 5458 5456 5456 5454 5452 5452 5454 5459 5466 5475 5482 5491 5505 5517 5525 5531 5536 5547 5559 5569 5576 5581 5586 5592 5598 5600 5601 5602 5601 5602 5602 5601 5600 5598
5500 5499 5500 5497 5492 5484 5476 5470 5469 5468 5466 5464 5464 5463 5462 5461 5463 5469 5475 5483 5492 5500 5513 5524 5529 5535 5542 5551 5560 5568 5575 5580 5586 5593 5599 5602 5603 5603 5603 5603 5603 5602 5601 5600
5497 5497 5497 5493 5487 5480 5474 5471 5472 5473 5473 5474 5474 5475 5475 5475 5476 5480 5486 5494 5504 5512 5523 5532 5538 5542 5549 5556 5563 5569 5575 5581 5586 5593 5601 5604 5605 5605 5605 5605 5605 5604 5602 5601
5496 5496 5496 5494 5490 5483 5478 5477 5478 5481 5483 5484 5485 5488 5490 5490 5492 5496 5502 5509 5517 5526 5534 5540 5545 5550 5554 5559 5565 5571 5577 5583 5590 5598 5605 5607 5608 5608 5609 5608 5607 5606 5605 5603